User: anonymous   Login
Location: Quebec
(46.8000°N, 71.2500°W)
Time: 00:22:46
(UTC-04:00)
Language:

Vanguard 3 - Orbit

View from above orbital plane
View from above orbital plane
View from above satellite
View from above satellite

Ground track
Ground track

The orbit data is extracted from the following two-line orbital elements,

1 00020U 59007A   18203.24776821  .00000050  00000-0  13288-4 0  9995
2 00020  33.3434 142.0496 1667222 173.9372 188.4402 11.55590373150077
Epoch (UTC): 22 July 2018 05:56:47
Eccentricity: 0.1667222
inclination: 33.3434°
perigee height: 508 km
apogee height: 3264 km
right ascension of ascending node: 142.0496°
argument of perigee: 173.9372°
revolutions per day: 11.55590373
mean anomaly at epoch: 188.4402°
orbit number at epoch: 15007

The dashed part of the orbit path shows where the satellite is in the earth's shadow,  

DLR